Location: Newark
(50.0953°N, 2.1719°E)
Time: 20:53:03
(UTC+00:00)

N. Korean satellite - Pass Details

Date: 29 January 2020
Orbit: 456 x 505 km, 97.2° (Epoch: 22 February)

Event Time Altitude Azimuth Distance (km) Brightness Sun altitude
Rises 17:46:41 0° 207° (SSW) 2,465 10.8 -10.9°
Reaches altitude 10° 17:49:20 10° 230° (SW) 1,601 10.3 -11.3°
Maximum altitude 17:51:30 16° 269° (W) 1,296 9.9 -11.6°
Drops below altitude 10° 17:53:41 10° 309° (NW) 1,618 9.8 -12.0°
Sets 17:56:24 0° 332° (NNW) 2,508 10.4 -12.4°
